DW6610 Weather Reports


time (UTC)temp
C
wind
direction
speed
KPH
gust
KPH
rain 1hr
cm
rain 24hr
cm
rain mn
cm
humidity
%
barometer
mb
20260510185548 28 103 1.6 8.0 0.00 0.00 0.00 54 1016.7
20260510185048 28 0 0.0 6.4 0.00 0.00 0.00 54 1016.6
20260510184554 29 113 1.6 6.4 0.00 0.00 0.00 55 1016.7
20260510184051 29 160 1.6 6.4 0.00 0.00 0.00 55 1016.6
20260510183551 29 116 1.6 6.4 0.00 0.00 0.00 52 1016.7
20260510183057 30 195 1.6 4.8 0.00 0.00 0.00 56 1016.6
20260510182551 29 122 1.6 6.4 0.00 0.00 0.00 53 1016.7
20260510182050 29 158 3.2 6.4 0.00 0.00 0.00 53 1016.7
20260510181602 30 199 1.6 4.8 0.00 0.00 0.00 53 1016.7
20260510181059 30 104 1.6 4.8 0.00 0.00 0.00 54 1016.7
20260510180551 30 241 1.6 4.8 0.00 0.00 0.00 52 1016.7
20260510180054 30 90 0.0 4.8 0.00 0.00 0.00 55 1016.6
20260510175550 30 102 1.6 4.8 0.00 0.00 0.00 51 1016.7
20260510175052 30 294 1.6 4.8 0.00 0.00 0.00 56 1016.8
20260510174558 30 100 0.0 3.2 0.00 0.00 0.00 51 1016.8
20260510174050 30 0 0.0 6.4 0.00 0.00 0.00 54 1016.9
20260510173550 30 58 0.0 6.4 0.00 0.00 0.00 56 1016.9
20260510173112 30 120 1.6 6.4 0.00 0.00 0.00 57 1017.0
20260510172553 30 92 3.2 6.4 0.00 0.00 0.00 57 1017.1
20260510172053 30 108 1.6 6.4 0.00 0.00 0.00 55 1017.2
20260510171556 30 98 3.2 6.4 0.00 0.00 0.00 55 1017.3
20260510171049 30 72 3.2 6.4 0.00 0.00 0.00 53 1017.3
20260510170549 30 56 0.0 4.8 0.00 0.00 0.00 53 1017.3
20260510170059 29 153 1.6 9.7 0.00 0.00 0.00 58 1017.4
20260510165552 29 94 3.2 9.7 0.00 0.00 0.00 59 1017.4
20260510165051 29 89 1.6 8.0 0.00 0.00 0.00 60 1017.3
20260510164612 28 122 3.2 8.0 0.00 0.00 0.00 59 1017.3
20260510164051 29 151 3.2 8.0 0.00 0.00 0.00 58 1017.4
20260510163551 29 131 1.6 8.0 0.00 0.00 0.00 58 1017.4
20260510163104 28 110 1.6 8.0 0.00 0.00 0.00 63 1017.5
20260510162551 29 184 1.6 4.8 0.00 0.00 0.00 60 1017.5
20260510162052 30 77 1.6 4.8 0.00 0.00 0.00 63 1017.6
20260510161602 29 95 1.6 6.4 0.00 0.00 0.00 64 1017.6
20260510161050 29 133 1.6 6.4 0.00 0.00 0.00 67 1017.6
20260510160550 28 57 1.6 6.4 0.00 0.00 0.00 63 1017.6
20260510160105 28 184 0.0 6.4 0.00 0.00 0.00 64 1017.5
20260510155549 28 95 1.6 6.4 0.00 0.00 0.00 64 1017.5
20260510155051 28 60 0.0 4.8 0.00 0.00 0.00 64 1017.6
20260510154556 28 131 0.0 3.2 0.00 0.00 0.00 66 1017.4
20260510154140 28 133 1.6 6.4 0.00 0.00 0.00 67 1017.4
20260510154051 28 133 1.6 6.4 0.00 0.00 0.00 67 1017.4
20260510153551 27 60 1.6 6.4 0.00 0.00 0.00 69 1017.4
20260510153057 27 110 1.6 6.4 0.00 0.00 0.00 69 1017.4
20260510152551 27 34 1.6 4.8 0.00 0.00 0.00 68 1017.4
20260510152052 27 66 1.6 6.4 0.00 0.00 0.00 70 1017.3
20260510151603 27 128 3.2 6.4 0.00 0.00 0.00 70 1017.4
20260510151050 27 113 0.0 4.8 0.00 0.00 0.00 73 1017.4
20260510150548 26 153 3.2 6.4 0.00 0.00 0.00 72 1017.4
20260510145553 27 129 0.0 4.8 0.00 0.00 0.00 72 1017.4
20260510145052 26 0 0.0 6.4 0.00 0.00 0.00 76 1017.4
20260510144604 26 90 0.0 6.4 0.00 0.00 0.00 76 1017.4
20260510144052 26 90 1.6 6.4 0.00 0.00 0.00 78 1017.6
20260510143552 25 168 1.6 6.4 0.00 0.00 0.00 78 1017.5
20260510143053 25 134 1.6 6.4 0.00 0.00 0.00 78 1017.4
20260510142551 25 94 0.0 4.8 0.00 0.00 0.00 79 1017.4
20260510142052 25 182 0.0 3.2 0.00 0.00 0.00 77 1017.5
20260510141553 25 132 0.0 3.2 0.00 0.00 0.00 79 1017.3
20260510141049 25 131 1.6 4.8 0.00 0.00 0.00 82 1017.3
20260510140548 24 83 0.0 4.8 0.00 0.00 0.00 82 1017.0
20260510140053 23 0 0.0 4.8 0.00 0.00 0.00 82 1017.0
20260510135551 23 0 1.6 3.2 0.00 0.00 0.00 84 1017.1
20260510135052 23 63 0.0 6.4 0.00 0.00 0.00 83 1016.9
20260510134556 22 146 0.0 6.4 0.00 0.00 0.00 85 1016.8
20260510134052 22 100 3.2 6.4 0.00 0.00 0.00 84 1017.1
20260510133553 22 123 0.0 3.2 0.00 0.00 0.00 86 1017.2
20260510133050 22 100 0.0 4.8 0.00 0.00 0.00 87 1017.2
20260510132548 21 101 1.6 4.8 0.00 0.00 0.00 87 1017.2
20260510132052 21 128 0.0 1.6 0.00 0.00 0.00 88 1017.0
20260510131553 21 114 0.0 1.6 0.00 0.00 0.00 88 1016.8
20260510131053 21 114 0.0 1.6 0.00 0.00 0.00 90 1016.8
20260510130552 20 0 0.0 1.6 0.00 0.00 0.00 93 1016.8
20260510130052 20 0 0.0 1.6 0.00 0.00 0.00 94 1016.9
20260510125551 19 0 0.0 1.6 0.00 0.00 0.00 95 1016.9
20260510125051 18 53 0.0 1.6 0.00 0.00 0.00 97 1016.9
20260510124557 18 0 0.0 1.6 0.00 0.00 0.00 99 1016.8
20260510124051 18 0 0.0 1.6 0.00 0.00 0.00 100 1016.7
20260510123548 17 0 0.0 1.6 0.00 0.00 0.00 100 1016.6
20260510123053 17 0 0.0 1.6 0.00 0.00 0.00 100 1016.6
20260510122549 16 0 0.0 1.6 0.00 0.00 0.00 100 1016.6
20260510122048 16 0 0.0 0.0 0.00 0.00 0.00 100 1016.5
20260510121557 15 0 0.0 0.0 0.00 0.00 0.00 100 1016.5
20260510121049 15 0 0.0 0.0 0.00 0.00 0.00 99 1016.4
20260510120550 14 0 0.0 0.0 0.00 0.00 0.00 99 1016.5
20260510120051 14 0 0.0 0.0 0.00 0.00 0.00 99 1016.6
20260510115549 13 0 0.0 1.6 0.00 0.00 0.00 99 1016.5
20260510115052 13 0 0.0 1.6 0.00 0.00 0.00 99 1016.5
20260510114605 13 0 0.0 1.6 0.00 0.00 0.00 99 1016.4
20260510114049 13 0 0.0 1.6 0.00 0.00 0.00 99 1016.4
20260510113552 13 0 0.0 1.6 0.00 0.00 0.00 99 1016.5
20260510113054 13 0 0.0 1.6 0.00 0.00 0.00 98 1016.4
20260510112551 13 0 0.0 1.6 0.00 0.00 0.00 98 1016.3
20260510112048 13 0 0.0 1.6 0.00 0.00 0.00 98 1016.1
20260510111551 13 0 0.0 1.6 0.00 0.00 0.00 98 1016.0
20260510111048 13 0 0.0 0.0 0.00 0.00 0.00 98 1016.0
20260510110548 13 0 0.0 0.0 0.00 0.00 0.00 98 1015.9
20260510110056 12 0 0.0 0.0 0.00 0.00 0.00 98 1015.9
20260510105552 13 0 0.0 0.0 0.00 0.00 0.00 98 1015.8
20260510105055 12 0 0.0 0.0 0.00 0.00 0.00 98 1015.6
20260510104608 13 0 0.0 0.0 0.00 0.00 0.00 97 1015.5
20260510104054 13 0 0.0 0.0 0.00 0.00 0.00 98 1015.5
20260510103551 13 0 0.0 0.0 0.00 0.00 0.00 98 1015.3
20260510103059 13 0 0.0 0.0 0.00 0.00 0.00 98 1015.3
20260510102552 13 0 0.0 0.0 0.00 0.00 0.00 98 1015.3
20260510102052 13 0 0.0 0.0 0.00 0.00 0.00 98 1015.3
20260510101556 13 0 0.0 0.0 0.00 0.00 0.00 97 1015.1
20260510101048 13 0 0.0 0.0 0.00 0.00 0.00 97 1015.1
20260510100548 13 0 0.0 0.0 0.00 0.00 0.00 97 1015.0
20260510100058 13 0 0.0 1.6 0.00 0.00 0.00 97 1015.0
20260510095548 13 0 0.0 1.6 0.00 0.00 0.00 97 1015.0
20260510095048 13 0 0.0 1.6 0.00 0.00 0.00 97 1015.0
20260510094553 13 0 0.0 0.0 0.00 0.00 0.00 97 1014.9
20260510094056 13 0 0.0 0.0 0.00 0.00 0.00 97 1014.8
20260510093553 13 0 0.0 0.0 0.00 0.00 0.00 97 1014.7
20260510093057 13 0 0.0 0.0 0.00 0.00 0.00 97 1014.7
20260510092553 13 0 0.0 0.0 0.00 0.00 0.00 97 1014.7
20260510092054 13 0 0.0 0.0 0.00 0.00 0.00 97 1014.5
20260510091552 13 0 0.0 0.0 0.00 0.00 0.00 97 1014.3
20260510091051 13 0 0.0 0.0 0.00 0.00 0.00 97 1014.2
20260510090551 13 0 0.0 0.0 0.00 0.00 0.00 97 1014.2
20260510090053 13 0 0.0 0.0 0.00 0.00 0.00 97 1014.2
20260510085551 12 0 0.0 0.0 0.00 0.00 0.00 96 1014.1
20260510085050 12 0 0.0 0.0 0.00 0.00 0.00 96 1014.0
20260510084558 13 0 0.0 0.0 0.00 0.00 0.00 95 1014.1
20260510084050 13 0 0.0 0.0 0.00 0.00 0.00 96 1014.2
20260510083551 13 0 0.0 0.0 0.00 0.00 0.00 96 1014.2
20260510083100 13 0 0.0 0.0 0.00 0.00 0.00 95 1014.2
20260510082549 13 0 0.0 0.0 0.00 0.00 0.00 96 1014.2
20260510082050 13 0 0.0 0.0 0.00 0.00 0.00 96 1014.0
20260510081553 13 0 0.0 0.0 0.00 0.00 0.00 96 1014.0
20260510081051 13 0 0.0 0.0 0.00 0.00 0.00 95 1014.0
20260510080551 13 0 0.0 0.0 0.00 0.00 0.00 95 1013.9
20260510080052 13 0 0.0 0.0 0.00 0.00 0.00 95 1013.9
20260510075551 13 0 0.0 0.0 0.00 0.00 0.00 95 1013.9
20260510075053 13 0 0.0 1.6 0.00 0.00 0.00 95 1013.8
20260510074616 13 0 0.0 1.6 0.00 0.00 0.00 95 1013.9
20260510074051 13 0 0.0 0.0 0.00 0.00 0.00 95 1013.9
20260510073550 13 0 0.0 0.0 0.00 0.00 0.00 95 1013.9
20260510073056 13 0 0.0 0.0 0.00 0.00 0.00 95 1013.9
20260510072550 13 0 0.0 0.0 0.00 0.00 0.00 95 1013.9
20260510072050 13 0 0.0 0.0 0.00 0.00 0.00 94 1013.9
20260510071600 13 0 0.0 0.0 0.00 0.00 0.00 94 1013.9
20260510071052 13 0 0.0 0.0 0.00 0.00 0.00 93 1013.8
20260510070550 13 0 0.0 0.0 0.00 0.00 0.00 93 1013.9
20260510070053 13 0 0.0 0.0 0.00 0.00 0.00 93 1014.0
20260510065551 13 0 0.0 0.0 0.00 0.00 0.00 93 1014.0
20260510065051 13 0 0.0 0.0 0.00 0.00 0.00 93 1014.0
20260510064607 13 0 0.0 0.0 0.00 0.00 0.00 93 1014.0
20260510064049 13 0 0.0 0.0 0.00 0.00 0.00 93 1013.9
20260510063551 13 0 0.0 0.0 0.00 0.00 0.00 93 1014.0
20260510063101 13 0 0.0 0.0 0.00 0.00 0.00 93 1013.8
20260510062551 13 0 0.0 0.0 0.00 0.00 0.00 93 1013.7
20260510062050 13 0 0.0 1.6 0.00 0.00 0.00 93 1013.6
20260510061554 13 0 0.0 3.2 0.00 0.00 0.00 93 1013.6
20260510061051 13 0 0.0 3.2 0.00 0.00 0.00 93 1013.6
20260510060550 13 38 0.0 3.2 0.00 0.00 0.00 93 1013.6
20260510060057 13 0 0.0 0.0 0.00 0.00 0.00 92 1013.5
20260510055549 13 0 0.0 0.0 0.00 0.00 0.00 92 1013.4
20260510055049 13 0 0.0 0.0 0.00 0.00 0.00 92 1013.5
20260510054554 14 0 0.0 0.0 0.00 0.00 0.00 92 1013.5
20260510054052 14 0 0.0 0.0 0.00 0.00 0.00 91 1013.4
20260510053552 14 0 0.0 1.6 0.00 0.00 0.00 91 1013.5
20260510053053 14 0 0.0 1.6 0.00 0.00 0.00 91 1013.4
20260510052551 14 0 0.0 1.6 0.00 0.00 0.00 90 1013.5
20260510052051 14 0 0.0 1.6 0.00 0.00 0.00 90 1013.5
20260510051558 14 0 0.0 1.6 0.00 0.00 0.00 90 1013.5
20260510051051 14 0 0.0 1.6 0.00 0.00 0.00 90 1013.4
20260510050552 14 0 0.0 1.6 0.00 0.00 0.00 90 1013.5
20260510050059 15 0 0.0 3.2 0.00 0.00 0.00 90 1013.5
20260510045552 15 0 0.0 3.2 0.00 0.00 0.00 90 1013.4
20260510045052 15 108 0.0 3.2 0.00 0.00 0.00 91 1013.5
20260510044552 15 0 0.0 1.6 0.00 0.00 0.00 91 1013.5
20260510044053 15 109 0.0 1.6 0.00 0.00 0.00 91 1013.5
20260510043549 15 0 0.0 1.6 0.00 0.00 0.00 91 1013.4
20260510043059 15 109 0.0 1.6 0.00 0.00 0.00 91 1013.4
20260510042551 15 0 0.0 1.6 0.00 0.00 0.00 92 1013.4
20260510042051 15 0 0.0 1.6 0.00 0.00 0.00 92 1013.4
20260510041609 15 109 0.0 1.6 0.00 0.00 0.00 91 1013.5
20260510041053 15 0 0.0 1.6 0.00 0.00 0.00 91 1013.6
20260510040551 15 0 0.0 1.6 0.00 0.00 0.00 90 1013.7
20260510040053 15 0 0.0 0.0 0.00 0.00 0.00 90 1013.6
20260510035548 15 0 0.0 0.0 0.00 0.00 0.00 89 1013.7
20260510035051 15 0 0.0 0.0 0.00 0.00 0.00 88 1013.6
20260510034554 15 0 0.0 0.0 0.00 0.00 0.00 88 1013.6
20260510034051 15 0 0.0 0.0 0.00 0.00 0.00 87 1013.5
20260510033552 15 0 0.0 1.6 0.00 0.00 0.00 86 1013.6
20260510033059 16 0 0.0 1.6 0.00 0.00 0.00 85 1013.6
20260510032551 16 0 0.0 1.6 0.00 0.00 0.00 85 1013.6
20260510032054 16 0 0.0 1.6 0.00 0.00 0.00 84 1013.6
20260510031601 16 0 0.0 1.6 0.00 0.00 0.00 84 1013.6
20260510031052 16 0 0.0 0.0 0.00 0.00 0.00 83 1013.6
20260510030551 16 0 0.0 0.0 0.00 0.00 0.00 82 1013.6
20260510030058 16 0 0.0 0.0 0.00 0.00 0.00 81 1013.6
20260510025551 16 0 0.0 1.6 0.00 0.00 0.00 80 1013.5
20260510025050 16 0 0.0 1.6 0.00 0.00 0.00 79 1013.5
20260510024603 17 0 0.0 1.6 0.00 0.00 0.00 79 1013.5
20260510024051 17 0 0.0 1.6 0.00 0.00 0.00 78 1013.5
20260510023551 17 0 0.0 1.6 0.00 0.00 0.00 77 1013.4
20260510023054 17 0 0.0 1.6 0.00 0.00 0.00 77 1013.2
20260510022555 17 0 0.0 0.0 0.00 0.00 0.00 77 1013.1
20260510022050 17 0 0.0 1.6 0.00 0.00 0.00 77 1013.0
20260510021559 18 0 0.0 1.6 0.00 0.00 0.00 77 1013.0
20260510021054 18 0 0.0 1.6 0.00 0.00 0.00 78 1012.9
20260510020550 18 0 0.0 0.0 0.00 0.00 0.00 77 1012.9
20260510020100 18 0 0.0 0.0 0.00 0.00 0.00 76 1012.8
20260510015551 18 0 0.0 1.6 0.00 0.00 0.00 75 1012.7
20260510015050 19 0 0.0 1.6 0.00 0.00 0.00 74 1012.6
20260510014554 20 0 0.0 1.6 0.00 0.00 0.00 72 1012.4
20260510014050 20 0 0.0 1.6 0.00 0.00 0.00 66 1012.4
20260510013551 20 0 0.0 1.6 0.00 0.00 0.00 64 1012.3
20260510013108 20 0 0.0 1.6 0.00 0.00 0.00 61 1012.2
20260510012552 20 119 0.0 1.6 0.00 0.00 0.00 63 1012.2
20260510012051 20 0 0.0 0.0 0.00 0.00 0.00 64 1012.1
20260510011557 21 0 0.0 0.0 0.00 0.00 0.00 65 1012.0
20260510011053 21 0 0.0 0.0 0.00 0.00 0.00 67 1012.0
20260510010550 21 0 0.0 0.0 0.00 0.00 0.00 66 1012.0
20260510010112 22 0 0.0 0.0 0.00 0.00 0.00 63 1011.9
20260510005550 22 0 0.0 0.0 0.00 0.00 0.00 56 1011.8
20260510005051 22 0 0.0 0.0 0.00 0.00 0.00 56 1011.7
20260510004559 23 0 0.0 0.0 0.00 0.00 0.00 55 1011.7
20260510004050 23 0 0.0 0.0 0.00 0.00 0.00 51 1011.7
20260510003550 24 0 0.0 0.0 0.00 0.00 0.00 48 1011.6
20260510003055 25 0 0.0 0.0 0.00 0.00 0.00 48 1011.5
20260510002553 25 0 0.0 1.6 0.00 0.00 0.00 47 1011.5
20260510002049 26 0 0.0 1.6 0.00 0.00 0.00 46 1011.4
20260510001553 26 0 0.0 1.6 0.00 0.00 0.00 44 1011.4
20260510001050 27 0 0.0 1.6 0.00 0.00 0.00 41 1011.3
20260510000551 28 0 0.0 1.6 0.00 0.00 0.00 39 1011.3
20260510000121 28 120 0.0 3.2 0.00 0.00 0.00 37 1011.3
20260509235550 28 0 0.0 3.2 0.00 0.00 0.00 38 1011.3
20260509235050 28 120 0.0 3.2 0.00 0.00 0.00 38 1011.3
20260509234604 28 120 0.0 3.2 0.00 0.00 0.00 37 1011.2
20260509234056 28 0 0.0 1.6 0.00 0.00 0.00 39 1011.1
20260509233550 28 0 0.0 3.2 0.00 0.00 0.00 33 1011.2
20260509233059 28 0 0.0 3.2 0.00 0.00 0.00 36 1011.2
20260509232550 28 106 0.0 3.2 0.00 0.00 0.00 38 1011.2
20260509232051 28 97 0.0 3.2 0.00 0.00 0.00 37 1011.2
20260509231555 28 152 1.6 3.2 0.00 0.00 0.00 36 1011.1
20260509231050 29 84 0.0 3.2 0.00 0.00 0.00 36 1011.1
20260509230549 29 90 1.6 3.2 0.00 0.00 0.00 38 1011.0
20260509230105 28 0 0.0 3.2 0.00 0.00 0.00 36 1010.9
20260509225550 29 134 1.6 3.2 0.00 0.00 0.00 36 1010.9
20260509225050 29 144 0.0 4.8 0.00 0.00 0.00 36 1010.9
20260509224609 29 197 1.6 4.8 0.00 0.00 0.00 35 1010.8
20260509224053 30 117 0.0 4.8 0.00 0.00 0.00 36 1010.8
20260509223551 29 0 1.6 4.8 0.00 0.00 0.00 37 1010.8
20260509223107 29 100 0.0 6.4 0.00 0.00 0.00 38 1010.8
20260509222552 29 107 3.2 8.0 0.00 0.00 0.00 39 1010.9
20260509222050 28 127 1.6 8.0 0.00 0.00 0.00 39 1010.9
20260509221612 29 170 1.6 8.0 0.00 0.00 0.00 36 1011.0
20260509221052 29 68 0.0 4.8 0.00 0.00 0.00 36 1011.0
20260509220553 28 0 1.6 6.4 0.00 0.00 0.00 34 1011.0
20260509220105 29 154 1.6 6.4 0.00 0.00 0.00 38 1010.9
20260509215550 29 143 1.6 6.4 0.00 0.00 0.00 36 1011.0
20260509215051 29 120 1.6 4.8 0.00 0.00 0.00 37 1010.9
20260509214553 29 73 1.6 4.8 0.00 0.00 0.00 39 1010.9
20260509214052 28 127 3.2 6.4 0.00 0.00 0.00 34 1011.0
20260509213550 28 91 1.6 8.0 0.00 0.00 0.00 38 1011.0
20260509213057 28 126 1.6 8.0 0.00 0.00 0.00 39 1011.0
20260509212549 28 181 1.6 6.4 0.00 0.00 0.00 38 1011.1
20260509212053 28 195 1.6 6.4 0.00 0.00 0.00 36 1011.0
20260509211553 29 163 1.6 6.4 0.00 0.00 0.00 37 1011.0
20260509211052 29 180 1.6 4.8 0.00 0.00 0.00 35 1011.2
20260509210550 29 90 1.6 8.0 0.00 0.00 0.00 38 1011.2
20260509210100 28 135 1.6 8.0 0.00 0.00 0.00 37 1011.1
20260509205552 28 120 3.2 8.0 0.00 0.00 0.00 40 1011.1
20260509205050 28 207 1.6 8.0 0.00 0.00 0.00 37 1011.1
20260509204600 29 153 1.6 8.0 0.00 0.00 0.00 44 1011.0
20260509204052 28 122 1.6 8.0 0.00 0.00 0.00 39 1011.1
20260509203551 28 163 3.2 8.0 0.00 0.00 0.00 41 1011.0
20260509203055 28 216 1.6 8.0 0.00 0.00 0.00 40 1011.1
20260509202552 28 117 1.6 8.0 0.00 0.00 0.00 39 1011.2
20260509202053 29 84 1.6 4.8 0.00 0.00 0.00 40 1011.1
20260509201551 28 129 1.6 11.3 0.00 0.00 0.00 37 1011.1
20260509201051 28 114 3.2 11.3 0.00 0.00 0.00 40 1011.2
20260509200551 28 82 3.2 11.3 0.00 0.00 0.00 45 1011.2
20260509200104 28 90 1.6 6.4 0.00 0.00 0.00 42 1011.2
20260509195550 28 139 3.2 8.0 0.00 0.00 0.00 37 1011.4
20260509195049 28 153 1.6 8.0 0.00 0.00 0.00 40 1011.3
20260509194555 28 101 3.2 9.7 0.00 0.00 0.00 40 1011.4
20260509194051 28 204 1.6 11.3 0.00 0.00 0.00 46 1011.3
20260509193554 28 70 4.8 11.3 0.00 0.00 0.00 47 1011.4
20260509193101 28 165 1.6 9.7 0.00 0.00 0.00 46 1011.4
20260509192550 28 207 1.6 9.7 0.00 0.00 0.00 44 1011.4
20260509192052 28 92 4.8 8.0 0.00 0.00 0.00 45 1011.5
20260509191613 28 199 1.6 6.4 0.00 0.00 0.00 42 1011.5
20260509191050 28 86 1.6 6.4 0.00 0.00 0.00 48 1011.5
20260509190550 28 77 1.6 4.8 0.00 0.00 0.00 43 1011.5
20260509190112 28 164 1.6 8.0 0.00 0.00 0.00 45 1011.5